TimeEST,TemperatureF,Dew PointF,Humidity,Sea Level PressureIn,VisibilityMPH,Wind Direction,Wind SpeedMPH,Gust SpeedMPH,PrecipitationIn,Events,Conditions,WindDirDegrees,DateUTC
12:15 AM,30.2,23.9,77,30.36,7.0,Calm,Calm,-,N/A,,Clear,0,2012-12-14 05:15:00
12:35 AM,30.0,23.9,78,30.35,10.0,Calm,Calm,-,N/A,,Clear,0,2012-12-14 05:35:00
12:55 AM,29.1,23.9,81,30.35,10.0,Calm,Calm,-,N/A,,Clear,0,2012-12-14 05:55:00
1:15 AM,28.4,24.3,84,30.35,10.0,NW,4.6,-,N/A,,Clear,320,2012-12-14 06:15:00
1:35 AM,29.3,23.9,80,30.35,10.0,NNW,4.6,-,N/A,,Clear,330,2012-12-14 06:35:00
1:55 AM,29.1,23.7,80,30.35,10.0,NNW,3.5,-,N/A,,Clear,330,2012-12-14 06:55:00
2:15 AM,29.5,23.4,78,30.35,10.0,Calm,Calm,-,N/A,,Clear,0,2012-12-14 07:15:00
2:35 AM,28.2,23.5,83,30.34,10.0,Calm,Calm,-,N/A,,Clear,0,2012-12-14 07:35:00
2:55 AM,27.3,23.2,84,30.34,10.0,Calm,Calm,-,N/A,,Clear,0,2012-12-14 07:55:00
3:15 AM,26.6,23.5,88,30.34,10.0,Calm,Calm,-,N/A,,Clear,0,2012-12-14 08:15:00
3:35 AM,26.2,23.4,89,30.34,10.0,NW,3.5,-,N/A,,Clear,320,2012-12-14 08:35:00
3:55 AM,26.2,23.0,88,30.34,10.0,NNW,3.5,-,N/A,,Clear,330,2012-12-14 08:55:00
4:15 AM,27.3,23.2,84,30.34,10.0,Calm,Calm,-,N/A,,Clear,0,2012-12-14 09:15:00
4:35 AM,27.0,22.8,84,30.34,10.0,NW,4.6,-,N/A,,Clear,320,2012-12-14 09:35:00
4:55 AM,25.9,22.6,88,30.34,10.0,NW,4.6,-,N/A,,Clear,310,2012-12-14 09:55:00
5:15 AM,25.0,22.6,91,30.35,10.0,WNW,4.6,-,N/A,,Clear,300,2012-12-14 10:15:00
5:35 AM,27.0,22.8,84,30.36,10.0,WNW,4.6,-,N/A,,Clear,290,2012-12-14 10:35:00
6:15 AM,28.6,22.1,77,30.36,10.0,Calm,Calm,-,N/A,,Clear,0,2012-12-14 11:15:00
6:35 AM,26.4,22.6,86,30.36,10.0,Calm,Calm,-,N/A,,Clear,0,2012-12-14 11:35:00
6:55 AM,27.5,22.5,81,30.35,10.0,Calm,Calm,-,N/A,,Clear,0,2012-12-14 11:55:00
7:15 AM,24.4,21.4,88,30.35,10.0,Calm,Calm,-,N/A,,Clear,0,2012-12-14 12:15:00
7:35 AM,23.7,21.4,91,30.35,10.0,NNW,3.5,-,N/A,,Clear,340,2012-12-14 12:35:00
7:55 AM,25.7,22.5,88,30.37,10.0,WNW,3.5,-,N/A,,Clear,300,2012-12-14 12:55:00
8:15 AM,26.8,23.0,86,30.37,10.0,Calm,Calm,-,N/A,,Clear,0,2012-12-14 13:15:00
8:35 AM,29.7,23.9,79,30.37,10.0,Calm,Calm,-,N/A,,Clear,0,2012-12-14 13:35:00
8:55 AM,32.0,25.0,75,30.38,10.0,Calm,Calm,-,N/A,,Clear,0,2012-12-14 13:55:00
9:15 AM,34.2,25.7,71,30.38,10.0,Calm,Calm,-,N/A,,Clear,0,2012-12-14 14:15:00
9:35 AM,37.0,28.0,70,30.38,10.0,Calm,Calm,-,N/A,,Clear,0,2012-12-14 14:35:00
9:55 AM,39.9,27.9,62,30.38,10.0,Calm,Calm,-,N/A,,Clear,0,2012-12-14 14:55:00
10:15 AM,42.4,27.9,56,30.39,10.0,Calm,Calm,-,N/A,,Clear,0,2012-12-14 15:15:00
10:35 AM,44.8,28.0,52,30.38,10.0,Calm,Calm,-,N/A,,Clear,0,2012-12-14 15:35:00
10:55 AM,45.1,27.0,49,30.38,10.0,Calm,Calm,-,N/A,,Clear,0,2012-12-14 15:55:00
11:15 AM,46.4,27.1,47,30.37,10.0,South,4.6,-,N/A,,Clear,170,2012-12-14 16:15:00
11:35 AM,47.8,26.4,43,30.36,10.0,Calm,Calm,-,N/A,,Clear,0,2012-12-14 16:35:00
11:55 AM,49.5,26.6,41,30.34,10.0,Calm,Calm,-,N/A,,Clear,0,2012-12-14 16:55:00
12:15 PM,50.5,26.4,39,30.33,10.0,Calm,Calm,-,N/A,,Clear,0,2012-12-14 17:15:00
12:35 PM,51.8,26.2,37,30.31,10.0,Calm,Calm,-,N/A,,Clear,0,2012-12-14 17:35:00
12:55 PM,53.4,26.8,36,30.30,10.0,SSW,3.5,-,N/A,,Clear,210,2012-12-14 17:55:00
1:15 PM,53.8,26.4,35,30.29,10.0,Calm,Calm,-,N/A,,Clear,0,2012-12-14 18:15:00
1:35 PM,54.3,26.4,34,30.27,10.0,Calm,Calm,-,N/A,,Clear,0,2012-12-14 18:35:00
2:15 PM,55.8,26.8,33,30.26,10.0,Calm,Calm,-,N/A,,Clear,0,2012-12-14 19:15:00
2:35 PM,56.1,26.4,32,30.26,10.0,South,5.8,-,N/A,,Clear,180,2012-12-14 19:35:00
2:55 PM,56.5,26.6,32,30.25,10.0,SSE,3.5,-,N/A,,Clear,150,2012-12-14 19:55:00
3:15 PM,56.1,26.4,32,30.25,10.0,SSE,3.5,-,N/A,,Clear,150,2012-12-14 20:15:00
3:35 PM,56.3,26.1,31,30.25,10.0,Calm,Calm,-,N/A,,Clear,0,2012-12-14 20:35:00
3:55 PM,56.1,26.1,31,30.25,10.0,Calm,Calm,-,N/A,,Clear,0,2012-12-14 20:55:00
4:15 PM,56.3,27.1,33,30.24,10.0,Calm,Calm,-,N/A,,Clear,0,2012-12-14 21:15:00
4:35 PM,55.2,26.4,33,30.24,10.0,Calm,Calm,-,N/A,,Clear,0,2012-12-14 21:35:00
4:55 PM,54.1,27.7,36,30.23,10.0,SSE,3.5,-,N/A,,Clear,150,2012-12-14 21:55:00
5:15 PM,53.4,27.9,37,30.24,10.0,Calm,Calm,-,N/A,,Clear,0,2012-12-14 22:15:00
5:35 PM,51.3,27.9,40,30.24,10.0,South,3.5,-,N/A,,Clear,180,2012-12-14 22:35:00
5:55 PM,50.7,27.3,40,30.24,10.0,SSE,3.5,-,N/A,,Clear,150,2012-12-14 22:55:00
6:15 PM,48.9,27.5,43,30.25,10.0,Calm,Calm,-,N/A,,Clear,0,2012-12-14 23:15:00
6:35 PM,48.0,27.5,45,30.26,10.0,Calm,Calm,-,N/A,,Clear,0,2012-12-14 23:35:00
6:55 PM,48.9,27.3,43,30.25,10.0,Calm,Calm,-,N/A,,Clear,0,2012-12-14 23:55:00
7:15 PM,46.4,27.3,47,30.24,10.0,Calm,Calm,-,N/A,,Clear,0,2012-12-15 00:15:00
7:35 PM,42.6,27.5,55,30.25,10.0,Calm,Calm,-,N/A,,Clear,0,2012-12-15 00:35:00
7:55 PM,41.2,27.5,58,30.25,10.0,Calm,Calm,-,N/A,,Clear,0,2012-12-15 00:55:00
8:15 PM,40.8,27.9,60,30.24,10.0,Calm,Calm,-,N/A,,Clear,0,2012-12-15 01:15:00
8:35 PM,38.1,28.6,69,30.25,10.0,Calm,Calm,-,N/A,,Clear,0,2012-12-15 01:35:00
8:55 PM,35.8,28.4,75,30.26,10.0,NW,3.5,-,N/A,,Clear,320,2012-12-15 01:55:00
9:35 PM,38.7,28.9,68,30.25,10.0,North,3.5,-,N/A,,Clear,10,2012-12-15 02:35:00
9:55 PM,36.0,29.3,77,30.26,10.0,Calm,Calm,-,N/A,,Clear,0,2012-12-15 02:55:00
10:15 PM,36.9,29.1,74,30.26,10.0,Calm,Calm,-,N/A,,Clear,0,2012-12-15 03:15:00
10:35 PM,36.5,29.3,75,30.25,10.0,Calm,Calm,-,N/A,,Clear,0,2012-12-15 03:35:00
10:55 PM,34.5,29.3,81,30.25,10.0,Calm,Calm,-,N/A,,Clear,0,2012-12-15 03:55:00
11:15 PM,33.8,28.9,82,30.26,10.0,NNW,3.5,-,N/A,,Clear,330,2012-12-15 04:15:00
11:35 PM,35.2,29.1,78,30.26,10.0,Calm,Calm,-,N/A,,Clear,0,2012-12-15 04:35:00
11:55 PM,36.3,29.7,77,30.25,10.0,Calm,Calm,-,N/A,,Clear,0,2012-12-15 04:55:00